Home > Weather > Melilla > Past weeks

Flag for Spain Weather for the Past 2 Weeks in Melilla, Melilla, Spain

Now
66 °F

Passing clouds.


Feels Like: 66 °F
Forecast: 63 / 68 °F
Wind: 12 mph from Southeast

Location: Melilla Airport

Current Time: May 1, 2016 at 10:41:11 AM

Latest Report: May 1, 2016 at 10:00 AM


Visibility: N/A

Pressure: 30.18 "Hg

Humidity: 78%

Dew Point: 59 °F

Location of MelillaLocation

Historic Weather in Melilla — Graph

°F

Melilla Temperature Yesterday

Maximum temperature yesterday: 70 °F (at 2:00 PM)
Minimum temperature yesterday: 64 °F (at 6:00 AM)
Average temperature yesterday: 67 °F

High & Low Weather Summary for the Past Weeks

 TemperatureHumidityPressure
High79 °F (Apr 27, 3:30 PM)100% (Apr 20, 9:30 AM)30.21 "Hg (Apr 20, 9:30 AM)
Low52 °F (Apr 21, 6:30 AM)27% (Apr 27, 7:00 PM)29.83 "Hg (Apr 27, 5:30 PM)
Average67 °F68%29.99 "Hg
* Reported Apr 16 9:00 AM — May 1 9:00 AM, Melilla, Weather by CustomWeather, © 2016

Note: Actual official high and low records may vary slightly from our data, if they occured in-between our weather recording intervals... More about our weather records

Advertising

Melilla Weather History for the Previous 24 Hours

Scroll right to see more
 ConditionsComfort  
Time TempWeatherWind HumidityBarometerVisibility
9:00 AM
Sun, May 1
66 °FScattered clouds.10 mph78%30.15 "HgN/A
8:30 AM64 °FPartly sunny.9 mph78%30.15 "HgN/A
8:00 AM64 °FPartly sunny.7 mph78%30.15 "HgN/A
7:30 AM64 °FScattered clouds.7 mph78%30.12 "HgN/A
6:30 AM64 °FPassing clouds.7 mph83%30.12 "HgN/A
6:00 AM64 °FPassing clouds.6 mph83%30.12 "HgN/A
8:30 PM
Sat, Apr 30
66 °FPassing clouds.2 mph73%30.07 "HgN/A
8:00 PM68 °FPassing clouds.3 mph69%30.07 "HgN/A
7:30 PM68 °FPassing clouds.3 mph69%30.07 "HgN/A
7:00 PM68 °FPassing clouds.5 mph69%30.07 "HgN/A
6:30 PM68 °FPassing clouds.6 mph69%30.07 "HgN/A
6:00 PM68 °FPassing clouds.7 mph73%30.09 "HgN/A
5:30 PM68 °FPassing clouds.7 mph73%30.09 "HgN/A
5:00 PM70 °FPassing clouds.6 mph69%30.07 "HgN/A
4:30 PM70 °FPassing clouds.8 mph64%30.07 "HgN/A
4:00 PM70 °FPassing clouds.7 mph69%30.09 "HgN/A
3:30 PM70 °FPassing clouds.7 mph73%30.09 "HgN/A
3:00 PM70 °FPassing clouds.8 mph73%30.09 "HgN/A
2:30 PM70 °FPassing clouds.8 mph69%30.07 "HgN/A
2:00 PM70 °FPassing clouds.6 mph69%30.07 "HgN/A
1:30 PM68 °FScattered clouds.8 mph73%30.09 "HgN/A
1:00 PM68 °FScattered clouds.7 mph78%30.09 "HgN/A
12:30 PM68 °FScattered clouds.7 mph73%30.09 "HgN/A
12:00 PM68 °FScattered clouds.7 mph78%30.09 "HgN/A
11:30 AM68 °FScattered clouds.6 mph78%30.09 "HgN/A
11:00 AM68 °FScattered clouds.6 mph78%30.07 "HgN/A
10:30 AM66 °FScattered clouds.7 mph83%30.07 "HgN/A
10:00 AM68 °FScattered clouds.6 mph78%30.07 "HgN/A
Weather by CustomWeather, © 2016

See weather overviewHow to use our weather pages